Regional Weather Roundup
Issued by NWS State College, PA

Home | Current Version | Previous Version | Graphics & Text | Print | Product List | Glossary On
Versions: 1 2 3 4 5 6 7 8 9 10 11 12 13 14 15 16 17 18 19 20 21 22 23 24 25 26 27 28 29 30 31 32 33 34 35 36 37 38 39 40 41 42 43 44 45 46 47 48 49 50
259
ASUS41 KCTP 070310
RWRCTP

REGIONAL WEATHER ROUNDUP
NATIONAL WEATHER SERVICE STATE COLLEGE PA
1000 PM EST SAT FEB 06 2016

Note: "fair" indicates few or no clouds below 12,000 feet with no
significant weather and/or obstructions to visibility.

* = STATION THAT DOES NOT REPORT PRECIPITATION /E.G. RAIN...SNOW...ETC/
    THUNDER OR FOG.

PAZ002>004-007>009-013>016-020>023-029>032-070400-
WESTERN PENNSYLVANIA

CITY           SKY/WX    TMP DP  RH WIND       PRES   REMARKS
ERIE           PTCLDY    29  19  66 S5        30.18F
MEADVILLE      CLEAR     31  16  54 VRB3      30.16F
FRANKLIN*      CLEAR     28  14  54 SW6       30.19S
NEW CASTLE     FAIR      32  17  54 CALM      30.21F
BEAVER COUNTY  NOT AVBL
BUTLER*        CLEAR     30  12  47 CALM      30.24S
PITTSBURGH INT CLEAR     34  11  38 SW6       30.21S
PITTSBURGH     CLEAR     36  14  40 SW6       30.21S
INDIANA*       CLEAR     27  21  80 CALM      30.23S
LATROBE        CLEAR     28  16  59 CALM      30.23F
WASHINGTON CO* CLEAR     27  16  63 CALM      30.21F
$$

PAZ004>006-010>012-017>019-024>028-033>037-041-042-045-046-049>053-070400-
CENTRAL PENNSYLVANIA

CITY           SKY/WX    TMP DP  RH WIND       PRES   REMARKS
BRADFORD       CLEAR     29  14  53 S3        30.13F
DUBOIS         CLEAR     29  15  56 SW7       30.16S
CLEARFIELD     CLEAR     29  19  66 SW5       30.18F
JOHNSTOWN      CLEAR     30  13  49 W6        30.16F
ALTOONA        CLEAR     33  17  51 SW5       30.20F
STATE COLLEGE  CLEAR     30  18  61 CALM      30.20S
WILLIAMSPORT   CLEAR     29  19  66 CALM      30.22S
SELINSGROVE    PTCLDY    32  20  61 SW3       30.26S
FT INDIANTOWN  PTCLDY    26  24  91 CALM      30.27S
CAPITAL CITY   PTCLDY    30  19  63 CALM      30.27F
HARRISBURG     CLOUDY    32  23  69 E6        30.27S
YORK           CLEAR     27  19  72 CALM      30.27F
$$

PAZ038>040-043-044-047-048-054-055-060>062-067>071-070400-
EASTERN PENNSYLVANIA

CITY           SKY/WX    TMP DP  RH WIND       PRES   REMARKS
SCRANTON       CLOUDY    32  18  56 CALM      30.22R
MOUNT POCONO   CLEAR     27  17  66 W3        30.18S
ALLENTOWN      CLOUDY    30  20  66 W5        30.27F
QUAKERTOWN*    PTCLDY    27  23  86 CALM      30.28S
READING        CLOUDY    32  19  58 CALM      30.28S
LANCASTER      CLOUDY    31  21  66 CALM      30.28S
COATESVILLE    CLEAR     32  23  69 CALM      30.29S
POTTSTOWN      PTCLDY    27  20  75 CALM      30.30
BLUE BELL        N/A     28  27  93 CALM      30.29S
DOYLESTOWN     PTCLDY    31  21  66 S5        30.28S
WILLOW GROVE   NOT AVBL
NORTH PHILA    CLEAR     36  24  62 S3        30.32S
PHILADELPHIA   MOCLDY    36  27  69 SW6       30.32S
$$




USA.gov is the U.S. government's official web portal to all federal, state and local government web resources and services.